Regional Weather Roundup
Issued by NWS

Home | Current Version | Previous Version | Graphics & Text | Print | Product List | Glossary Off
Versions: 1 2 3 4 5 6 7 8 9 10 11 12 13 14 15 16 17 18 19 20 21 22 23 24 25 26 27 28 29 30 31 32 33 34 35 36 37 38 39 40 41 42 43 44 45 46 47 48 49 50

000
ASUS43 KMKX 300021
RWRWI

WISCONSIN REGIONAL WEATHER ROUNDUP
NATIONAL WEATHER SERVICE MILWAUKEE/SULLIVAN WI
700 PM CDT MON JUN 29 2015

NOTE: "FAIR" INDICATES FEW OR NO CLOUDS BELOW 12,000 FEET WITH NO
SIGNIFICANT WEATHER AND/OR OBSTRUCTIONS TO VISIBILITY.

WIZ001-002-006>008-014>016-023>028-300100-
NORTHWEST WISCONSIN

CITY           SKY/WX    TMP DP  RH WIND       PRES   REMARKS
SUPERIOR ARPT  MOSUNNY   71  65  83 SE3       29.76S
6HR MIN TEMP:  63; 6HR MAX TEMP:  74;

ASHLAND        MOSUNNY   72  64  76 NE6       29.77R
6HR MIN TEMP:  64; 6HR MAX TEMP:  75;

HAYWARD        MOSUNNY   69  59  70 CALM      29.79S
6HR MIN TEMP:  60; 6HR MAX TEMP:  72; 6HR PCP:  0.28;

SIREN          PTSUNNY   66  60  79 CALM      29.79S
CUMBERLAND     CLOUDY    63  59  88 CALM      29.80S
RICE LAKE      CLOUDY    64  60  87 SW3       29.81R
6HR MIN TEMP:  63; 6HR MAX TEMP:  80; 6HR PCP:  0.49;

CHETEK         CLOUDY    63  62  96 SW5       29.80R
6HR MIN TEMP:  61; 6HR MAX TEMP:  79; 6HR PCP:  0.31;

LADYSMITH      PTSUNNY   64  60  87 CALM      29.80S
6HR MIN TEMP:  62; 6HR MAX TEMP:  77;

EAU CLAIRE     CLOUDY    61  59  93 SW7       29.79R FOG
6HR MIN TEMP:  59; 6HR MAX TEMP:  79; 6HR PCP:  1.08;

MENOMONIE      TSTM      61  61 100 S6        29.81S
NEW RICHMOND   CLOUDY    60  59  97 W6        29.81S
6HR MIN TEMP:  59; 6HR MAX TEMP:  81; 6HR PCP:  0.72;

OSCEOLA        CLOUDY    62  62 100 SW10      29.81R
6HR MIN TEMP:  61; 6HR MAX TEMP:  82; 6HR PCP:  0.43;

$$

WIZ003>005-009-010-017-018-300100-
NORTH CENTRAL WISCONSIN

CITY           SKY/WX    TMP DP  RH WIND       PRES   REMARKS
MANITOWISH WTR CLOUDY    65  63  93 W5        29.78S
6HR MIN TEMP:  59; 6HR MAX TEMP:  74; 6HR PCP:  0.19;

ARBOR VITAE    CLOUDY    64  61  88 NW3       29.79R
6HR MIN TEMP:  61; 6HR MAX TEMP:  77; 6HR PCP:  0.15;

WOODRUFF       CLOUDY    64  61  88 NW3       29.79R
6HR MIN TEMP:  61; 6HR MAX TEMP:  77; 6HR PCP:  0.15;

RHINELANDER    CLOUDY    64  59  83 CALM      29.80R
6HR MIN TEMP:  62; 6HR MAX TEMP:  79; 6HR PCP:  0.12;

EAGLE RIVER    CLOUDY    64  56  73 CALM      29.79R
LAND O LAKES   CLOUDY    64  60  89 CALM      29.79S
6HR MIN TEMP:  61; 6HR MAX TEMP:  76; 6HR PCP:  0.09;

PHILLIPS       PTSUNNY   64  60  87 SW5       29.78F
6HR MIN TEMP:  58; 6HR MAX TEMP:  77; 6HR PCP:  0.17;

TOMAHAWK       CLOUDY    61  58  92 CALM      29.79S
6HR MIN TEMP:  60; 6HR MAX TEMP:  76;

MEDFORD        CLOUDY    61  58  91 W5        29.79F
6HR MIN TEMP:  58; 6HR MAX TEMP:  77; 6HR PCP:  0.16;

MERRILL        CLOUDY    62  60  94 CALM      29.80R
6HR MIN TEMP:  61; 6HR MAX TEMP:  78; 6HR PCP:  0.02;

$$

WIZ029-030-035-036-043>047-300100-
CENTRAL WISCONSIN

CITY           SKY/WX    TMP DP  RH WIND       PRES   REMARKS
WAUSAU         CLOUDY    63  59  87 NW3       29.79R
6HR MIN TEMP:  62; 6HR MAX TEMP:  79; 6HR PCP:  0.09;

MOSINEE        NOT AVBL
MARSHFIELD     CLOUDY    62  57  83 W6        29.78F HAZE
6HR MIN TEMP:  61; 6HR MAX TEMP:  78; 6HR PCP:  0.07;

STEVENS POINT  CLOUDY    60  59  94 CALM      29.81R
6HR MIN TEMP:  60; 6HR MAX TEMP:  76; 6HR PCP:  0.04;

WAUPACA        LGT RAIN  67  66  96 SW5       29.78F
6HR MIN TEMP:  67; 6HR MAX TEMP:  80;

WAUTOMA        CLOUDY    66  60  81 CALM      29.80R
6HR MIN TEMP:  65; 6HR MAX TEMP:  81; 6HR PCP:  0.01;

WISC RAPIDS    LGT RAIN  62  57  83 W12       29.79F
6HR MIN TEMP:  62; 6HR MAX TEMP:  79; 6HR PCP:  0.24;

CAMP DOUGLAS   DRIZZLE   63  63 100 W8        29.81F
                                      6HR PCP:  0.04;

$$

WIZ011>013-019>022-031-037>040-048>050-300100-
NORTHEAST WISCONSIN

CITY           SKY/WX    TMP DP  RH WIND       PRES   REMARKS
ANTIGO         LGT RAIN  62  60  94 W5        29.80R
SHAWANO        RAIN      69  63  82 SW5       29.77R
6HR MIN TEMP:  68; 6HR MAX TEMP:  80; 6HR PCP:  0.14;

OCONTO         PTSUNNY   68  65  91 CALM      29.76R
6HR MIN TEMP:  66; 6HR MAX TEMP:  78; 6HR PCP:  0.13;

STURGEON BAY   MOSUNNY   66  57  72 S5        29.80S
6HR MIN TEMP:  66; 6HR MAX TEMP:  75;

GREEN BAY      CLOUDY    69  65  86 SW3       29.76S
6HR MIN TEMP:  67; 6HR MAX TEMP:  80; 6HR PCP:  0.27;

MANITOWOC      MOSUNNY   68  59  73 MISG      29.78S
6HR MIN TEMP:  67; 6HR MAX TEMP:  74;

APPLETON       PTSUNNY   72  61  68 S7        29.77S
CLINTONVILLE   LGT RAIN N/A N/A N/A CALM      29.76F
OSHKOSH        PTSUNNY   73  62  68 S6        29.77R
6HR MIN TEMP:  70; 6HR MAX TEMP:  77; 6HR PCP:  0.01;

$$

WIZ032>034-041-042-053>061-300100-
SOUTHWEST WISCONSIN

CITY           SKY/WX    TMP DP  RH WIND       PRES   REMARKS
LA CROSSE      TSTM      66  62  87 VRB6      29.82R
6HR MIN TEMP:  66; 6HR MAX TEMP:  83; 6HR PCP:  0.46;

SPARTA         TSTM      62  59  89 N5G16     29.85R
6HR MIN TEMP:  62; 6HR MAX TEMP:  80; 6HR PCP:  0.01;

VIROQUA        CLOUDY    65  64  94 N12       29.83S
6HR MIN TEMP:  65; 6HR MAX TEMP:  79; 6HR PCP:  0.05;

BOSCOBEL       LGT RAIN  72  68  87 VRB3      29.79R
6HR MIN TEMP:  73; 6HR MAX TEMP:  83; 6HR PCP:  0.02;

PRAIRIE DU CHI LGT RAIN  72  60  66 N23G51    29.78R
6HR MIN TEMP:  72; 6HR MAX TEMP:  80;

PLATTEVILLE    MOSUNNY   76  62  62 NW5       29.80S
6HR MIN TEMP:  73; 6HR MAX TEMP:  80; 6HR PCP:  0.03;

$$

WIZ056-057-062-063-064-067-068-300100-
SOUTH CENTRAL WISCONSIN

CITY           SKY/WX    TMP DP  RH WIND       PRES   REMARKS
REEDSBURG      RAIN      64  58  82 N8G18     29.81R
6HR MIN TEMP:  64; 6HR MAX TEMP:  78; 6HR PCP:  0.04;

BARABOO/DELLS  CLOUDY    65  57  76 N12G25    29.82R
6HR MIN TEMP:  65; 6HR MAX TEMP:  79; 6HR PCP:  0.07;

LONE ROCK      PTSUNNY   76  63  64 NW5       29.78S
6HR MIN TEMP:  75; 6HR MAX TEMP:  81;

MINERAL POINT  MOSUNNY   75  61  60 NW3       29.81R
MADISON        PTSUNNY   75  62  64 CALM      29.78S
6HR MIN TEMP:  72; 6HR MAX TEMP:  77;

MIDDLETON      MOSUNNY   77  61  58 NW5       29.79S
6HR MIN TEMP:  75; 6HR MAX TEMP:  81;

WATERTOWN      MOSUNNY   71  67  89 CALM      29.78S
6HR MIN TEMP:  63; 6HR MAX TEMP:  74; 6HR PCP:  0.50;

MONROE         MOSUNNY   72  68  88 CALM      29.79S
JANESVILLE     MOSUNNY   73  61  64 VRB3      29.78S
$$

WIZ051-052-058>065-066-070>072-300100-
SOUTHEAST WISCONSIN

CITY           SKY/WX    TMP DP  RH WIND       PRES   REMARKS
MILWAUKEE      MOSUNNY   70  61  73 SE7       29.79F
6HR MIN TEMP:  67; 6HR MAX TEMP:  73;

WAUKESHA       MOSUNNY   70  61  73 SW6       29.81S
MILWAUKEE/TIMM NOT AVBL
RACINE         SUNNY     68  60  75 S7        29.81F
6HR MIN TEMP:  68; 6HR MAX TEMP:  72;

BURLINGTON     MOSUNNY   70  62  77 S3        29.79S
6HR MIN TEMP:  67; 6HR MAX TEMP:  72;

KENOSHA        MOSUNNY   71  61  70 S6        29.79F
6HR MIN TEMP:  68; 6HR MAX TEMP:  73; 6HR PCP: TRACE;

FOND DU LAC    PTSUNNY   72  64  76 S5        29.78S
6HR MIN TEMP:  66; 6HR MAX TEMP:  76; 6HR PCP:  0.10;

SHEBOYGAN      PTSUNNY   70  58  65 S8        29.79R
6HR MIN TEMP:  70; 6HR MAX TEMP:  76;

WEST BEND      MOSUNNY   66  61  82 SE3       29.79R
JUNEAU         PTSUNNY   71  62  75 S3        29.79S
6HR MIN TEMP:  65; 6HR MAX TEMP:  74; 6HR PCP:  0.01;

$$

LSZ147-162-300100-
LAKE SUPERIOR

STATION/POSITION TIME  TEMP    WIND        PRES    WAVE
                       AIR SEA DIR/SP/G            HT/PER
                 (UTC) (F)     (DEG/KT/KT) (MB)    (FT/S)
W MID LAKE BUOY  2350   51 39  320/  6/  8 1007.9R   0
DEVILS ISLAND    0000   59     300/  7/  8 1008.4R
SAXON HARBOR     2300   71        CALM     1007.8R
$$

LMZ867-665-643>646-300100-
LAKE MICHIGAN

STATION/POSITION TIME  TEMP    WIND        PRES    WAVE
                       AIR SEA DIR/SP/G            HT/PER
                 (UTC) (F)     (DEG/KT/KT) (MB)    (FT/S)
CHAMBERS ISLAND  2300   73     160/  5/  9 1007.1F
S GREEN BAY BUOY 2200   75 72  180/ 12/ 16 1008.9F
N MID LAKE BUOY  2350   56 52  180/  6/  8 1008.1R   1



USA.gov is the U.S. government's official web portal to all federal, state and local government web resources and services.